Find Orbcomm B2

NORAD ID: 25419 Int'l Des: 1998-046 Owner: ORBC Country: US Constellation: orbcomm operational
LEOCIRCULAR

現在のビュー

3D地球を読み込み中...

Orbcomm B2について

説明を読み込み中...

次回通過

Passes for default location (London). Set your location on the main map for personalized predictions.

高度履歴

Loading altitude history...

軌道要素

1 25419U 98046G 26150.80300337 .00001228 00000-0 43037-3 0 9999
2 25419 44.9965 323.8618 0003035 223.6370 136.4239 14.40096692454300
Epoch: May 30, 2026 • Age: 15 hours

現在のステータス

高度 760.3 km
速度 7.48 km/s
衛星直下点 24.53°N, 57.41°W
打ち上げ日 Aug 2, 1998
運用期間 27.8 years
タイプ other

技術仕様

分類 Payload
質量 42.00 kg
乾燥質量 42.00 kg
総質量 42.00 kg
長さ 0.20 m
直径 1.00 m
スパン 4.30 m
形状 Cyl + 2 Pan + Ant
製造者 OSCG
バスタイプ Microstar
フェーズステータス Unknown Transfer Status
所有者/国 ORBC/US

Most Searched